Flag for China Weather past 2 weeks in Hohhot, Inner Mongolia, China

Now
55 °F

Broken clouds.


Feels Like: 55 °F
Forecast: 49 / 70 °F
Wind: 1 mph from Northeast

Location: Hohhot Airport

Current Time: Sep 16, 2014 at 6:28:31 PM

Latest Report: Sep 16, 2014 at 6:00 PM


Visibility: 4 mi

Pressure: 30.09 "Hg

Humidity: 94%

Dew point: 54 °F

Location of HohhotLocation

Historic Weather in Hohhot — Graph

°F

Hohhot temperature yesterday

Maximum temperature yesterday: 68 °F (at 2:00 PM)
Minimum temperature yesterday: 39 °F (at 5:00 AM)
Average temperature yesterday: 54 °F

Past Weeks' High & Low Weather Summary

 TemperatureHumidityPressure
High82 °F (Sep 5, 2:00 PM)100% (Sep 2, 4:00 AM)30.27 "Hg (Sep 2, 4:00 AM)
Low39 °F (Sep 15, 5:00 AM)22% (Sep 15, 1:00 PM)29.83 "Hg (Sep 4, 5:00 PM)
Average62 °F65%30.00 "Hg
* Reported Sep 1 5:00 PM — Sep 16 5:00 PM, Hohhot, Weather by CustomWeather, © 2014

Note: Actual official high and low records may vary slightly from our data, if they occured in-between our weather recording intervals... More about our weather records

Advertising

Hohhot weather history for previous 24 hours

 ConditionsComfort  
Time TempWeatherWind HumidityBarometerVisibility
5:00 PM
Sep 16
55 °FBroken clouds.1 mph94%30.09 "Hg4 mi
4:00 PM54 °FBroken clouds.3 mph94%30.09 "Hg4 mi
3:00 PM54 °FSprinkles. Broken clouds.6 mph94%30.09 "Hg5 mi
2:00 PM55 °FSprinkles. Fog.3 mph82%30.09 "Hg3 mi
1:00 PM55 °FSprinkles. Broken clouds.3 mph82%30.09 "HgN/A
12:00 PM55 °FSprinkles. Broken clouds.1 mph77%30.09 "HgN/A
11:00 AM57 °FLight rain. Scattered clouds.1 mph67%30.12 "HgN/A
10:00 AM59 °FScattered clouds.3 mph55%30.12 "HgN/A
9:00 AM55 °FScattered clouds.3 mph67%30.12 "HgN/A
8:00 AM55 °FScattered clouds.3 mph63%30.12 "HgN/A
7:00 AM54 °FScattered clouds.1 mph67%30.09 "HgN/A
6:00 AM52 °FPassing clouds.3 mph72%30.09 "HgN/A
5:00 AM52 °FPassing clouds.6 mph67%30.09 "HgN/A
4:00 AM54 °FPassing clouds.3 mph63%30.09 "HgN/A
3:00 AM52 °FPassing clouds.3 mph67%30.09 "HgN/A
2:00 AM52 °FPassing clouds.1 mph62%30.12 "HgN/A
1:00 AM52 °FPassing clouds.3 mph67%30.12 "HgN/A
12:00 AM50 °FPassing clouds.1 mph67%30.12 "HgN/A
11:00 PM
Sep 15
50 °FPassing clouds.3 mph67%30.12 "HgN/A
10:00 PM48 °FClear.6 mph66%30.12 "Hg10 mi
9:00 PM52 °FClear.6 mph67%30.12 "Hg10 mi
8:00 PM55 °FPassing clouds.3 mph51%30.12 "HgN/A
7:00 PM63 °FClear.3 mph30%30.09 "Hg10 mi
6:00 PM66 °FSunny.3 mph26%30.09 "Hg10 mi
Weather by CustomWeather, © 2014

See weather overviewHow to use our weather pages